CYZ9058 ZSNJ-ZUCK

Flight info

Callsign CYZ9058
Flight time 1h 59m
Altitude 32100
Route HFE W50 XSH W80 IRPOG
Aircraft B77L/H-SDE2E3FGILRWXY/LB2

Departure

Time 2026-04-30 01:15
Airport Nanjing Lukou International Airport (ZSNJ)

Arrival

Time 2026-04-30 03:15
Airport Chongqing Jiangbei International Airport (ZUCK)
Time Latitude Longitude Altitude Speed Heading
2026-04-30 00:34 31.72962 118.84758 63 ft 0 kts 57°
2026-04-30 00:58 31.72955 118.84747 63 ft 2 kts 57°
2026-04-30 00:59 31.72947 118.84731 63 ft 2 kts 57°
2026-04-30 00:59 31.72938 118.84717 63 ft 2 kts 57°
2026-04-30 00:59 31.72930 118.84702 63 ft 2 kts 57°
2026-04-30 00:59 31.72925 118.84693 63 ft 2 kts 56°
2026-04-30 01:00 31.72914 118.84681 63 ft 2 kts 22°
2026-04-30 01:00 31.72900 118.84677 63 ft 2 kts 354°
2026-04-30 01:00 31.72888 118.84681 63 ft 0 kts 329°
2026-04-30 01:00 31.72883 118.84684 63 ft 0 kts 328°
2026-04-30 01:04 31.72887 118.84682 63 ft 1 kts 328°
2026-04-30 01:04 31.72899 118.84673 63 ft 2 kts 328°
2026-04-30 01:04 31.72921 118.84656 63 ft 4 kts 328°
2026-04-30 01:04 31.72951 118.84635 63 ft 5 kts 328°
2026-04-30 01:05 31.72990 118.84609 63 ft 7 kts 340°
2026-04-30 01:05 31.73040 118.84624 63 ft 8 kts 35°
2026-04-30 01:05 31.73078 118.84678 63 ft 9 kts 59°
2026-04-30 01:05 31.73112 118.84737 63 ft 7 kts 41°
2026-04-30 01:06 31.73165 118.84740 63 ft 8 kts 337°
2026-04-30 01:06 31.73222 118.84737 63 ft 9 kts 38°
2026-04-30 01:06 31.73262 118.84804 63 ft 10 kts 58°
2026-04-30 01:06 31.73303 118.84880 63 ft 11 kts 58°
2026-04-30 01:07 31.73347 118.84963 63 ft 12 kts 58°
2026-04-30 01:07 31.73394 118.85052 63 ft 12 kts 58°
2026-04-30 01:07 31.73443 118.85143 63 ft 13 kts 58°
2026-04-30 01:07 31.73494 118.85239 63 ft 14 kts 58°
2026-04-30 01:08 31.73547 118.85338 63 ft 14 kts 58°
2026-04-30 01:08 31.73602 118.85441 63 ft 15 kts 58°
2026-04-30 01:08 31.73658 118.85545 63 ft 15 kts 58°
2026-04-30 01:08 31.73715 118.85651 63 ft 15 kts 58°
2026-04-30 01:09 31.73773 118.85761 63 ft 15 kts 58°
2026-04-30 01:09 31.73832 118.85871 63 ft 16 kts 58°
2026-04-30 01:09 31.73892 118.85984 63 ft 16 kts 58°
2026-04-30 01:09 31.73953 118.86098 63 ft 16 kts 58°
2026-04-30 01:10 31.74014 118.86213 63 ft 16 kts 58°
2026-04-30 01:10 31.74077 118.86330 63 ft 16 kts 58°
2026-04-30 01:10 31.74139 118.86446 63 ft 16 kts 58°
2026-04-30 01:10 31.74202 118.86563 63 ft 17 kts 58°
2026-04-30 01:11 31.74265 118.86681 63 ft 17 kts 58°
2026-04-30 01:11 31.74329 118.86801 63 ft 17 kts 58°
2026-04-30 01:11 31.74392 118.86919 63 ft 17 kts 58°
2026-04-30 01:11 31.74456 118.87041 63 ft 17 kts 58°
2026-04-30 01:12 31.74520 118.87161 63 ft 17 kts 58°
2026-04-30 01:12 31.74585 118.87283 63 ft 17 kts 58°
2026-04-30 01:12 31.74649 118.87402 63 ft 17 kts 58°
2026-04-30 01:12 31.74714 118.87524 63 ft 17 kts 58°
2026-04-30 01:13 31.74779 118.87644 63 ft 17 kts 58°
2026-04-30 01:13 31.74844 118.87767 63 ft 17 kts 58°
2026-04-30 01:13 31.74890 118.87852 63 ft 6 kts 58°
2026-04-30 01:13 31.74927 118.87883 63 ft 7 kts
2026-04-30 01:14 31.74980 118.87865 63 ft 8 kts 330°
2026-04-30 01:14 31.75036 118.87826 63 ft 9 kts 329°
2026-04-30 01:14 31.75053 118.87762 63 ft 7 kts 250°
2026-04-30 01:14 31.75040 118.87736 63 ft 0 kts 237°
2026-04-30 01:15 31.75018 118.87695 63 ft 28 kts 237°
2026-04-30 01:15 31.74753 118.87196 63 ft 113 kts 238°
2026-04-30 01:15 31.74203 118.86156 87 ft 182 kts 238°
2026-04-30 01:15 31.73485 118.84849 832 ft 199 kts 238°
2026-04-30 01:16 31.72911 118.83528 2177 ft 177 kts 250°
2026-04-30 01:16 31.72484 118.82128 2631 ft 194 kts 255°
2026-04-30 01:16 31.72069 118.80551 3098 ft 212 kts 255°
2026-04-30 01:16 31.71627 118.78831 3614 ft 229 kts 255°
2026-04-30 01:17 31.71155 118.77005 4170 ft 244 kts 255°
2026-04-30 01:17 31.70643 118.75029 4749 ft 260 kts 255°
2026-04-30 01:17 31.70110 118.72973 5458 ft 270 kts 255°
2026-04-30 01:17 31.69560 118.70852 6302 ft 275 kts 255°
2026-04-30 01:18 31.69005 118.68716 7162 ft 277 kts 256°
2026-04-30 01:18 31.68448 118.66574 8091 ft 275 kts 256°
2026-04-30 01:18 31.67892 118.64435 8952 ft 276 kts 256°
2026-04-30 01:18 31.67335 118.62292 9786 ft 276 kts 257°
2026-04-30 01:19 31.67020 118.60122 10435 ft 277 kts 274°
2026-04-30 01:19 31.67148 118.57792 10832 ft 294 kts 276°
2026-04-30 01:19 31.67234 118.55328 11293 ft 310 kts 272°
2026-04-30 01:19 31.67234 118.52763 11783 ft 326 kts 271°
2026-04-30 01:20 31.67197 118.50037 12327 ft 341 kts 270°
2026-04-30 01:20 31.67153 118.47221 13111 ft 349 kts 270°
2026-04-30 01:20 31.67110 118.44405 14160 ft 350 kts 270°
2026-04-30 01:20 31.67066 118.41589 15319 ft 351 kts 269°
2026-04-30 01:21 31.67021 118.38745 16486 ft 351 kts 269°
2026-04-30 01:21 31.66975 118.35890 17634 ft 352 kts 269°
2026-04-30 01:21 31.66929 118.33058 18718 ft 353 kts 268°
2026-04-30 01:21 31.66882 118.30183 19715 ft 356 kts 268°
2026-04-30 01:22 31.66834 118.27272 20638 ft 360 kts 268°
2026-04-30 01:22 31.66784 118.24335 21561 ft 363 kts 268°
2026-04-30 01:22 31.66735 118.21413 22462 ft 365 kts 267°
2026-04-30 01:22 31.66682 118.18424 23334 ft 367 kts 266°
2026-04-30 01:23 31.66479 118.15459 24178 ft 370 kts 263°
2026-04-30 01:23 31.66193 118.12450 24948 ft 375 kts 263°
2026-04-30 01:23 31.65899 118.09392 25700 ft 380 kts 263°
2026-04-30 01:23 31.65605 118.06331 26504 ft 384 kts 263°
2026-04-30 01:24 31.65305 118.03207 27332 ft 387 kts 262°
2026-04-30 01:24 31.65005 118.00095 28107 ft 391 kts 263°
2026-04-30 01:24 31.64697 117.96901 28868 ft 396 kts 263°
2026-04-30 01:24 31.64390 117.93730 29688 ft 398 kts 262°
2026-04-30 01:25 31.64079 117.90515 30578 ft 397 kts 262°
2026-04-30 01:25 31.63768 117.87315 31501 ft 394 kts 263°
2026-04-30 01:25 31.63459 117.84144 32102 ft 395 kts 262°
2026-04-30 01:25 31.63144 117.80918 32249 ft 397 kts 262°
2026-04-30 01:26 31.62520 117.74549 32258 ft 392 kts 263°
2026-04-30 01:26 31.61896 117.68218 32261 ft 394 kts 263°
2026-04-30 01:27 31.61696 117.61822 32259 ft 395 kts 272°
2026-04-30 01:27 31.62897 117.55519 32257 ft 400 kts 285°
2026-04-30 01:28 31.65526 117.49686 32258 ft 411 kts 298°
2026-04-30 01:28 31.68867 117.44253 32259 ft 413 kts 298°
2026-04-30 01:29 31.71434 117.38327 32260 ft 403 kts 284°
2026-04-30 01:29 31.72525 117.31995 32271 ft 397 kts 271°
2026-04-30 01:30 31.72164 117.25608 32270 ft 394 kts 258°
2026-04-30 01:30 31.70394 117.19550 32271 ft 395 kts 246°
2026-04-30 01:31 31.67341 117.14118 32273 ft 403 kts 237°
2026-04-30 01:31 31.63938 117.08890 32270 ft 403 kts 237°
2026-04-30 01:32 31.60554 117.03674 32269 ft 403 kts 237°
2026-04-30 01:32 31.57105 116.98477 32267 ft 403 kts 237°
2026-04-30 01:33 31.53680 116.93314 32273 ft 402 kts 237°
2026-04-30 01:33 31.50247 116.88134 32273 ft 405 kts 237°
2026-04-30 01:34 31.46807 116.82938 32278 ft 403 kts 238°
2026-04-30 01:34 31.43408 116.77727 32271 ft 405 kts 238°
2026-04-30 01:35 31.39991 116.72495 32269 ft 405 kts 238°
2026-04-30 01:35 31.36573 116.67271 32265 ft 405 kts 238°
2026-04-30 01:36 31.33148 116.62045 32269 ft 404 kts 238°
2026-04-30 01:36 31.29720 116.56820 32263 ft 405 kts 238°
2026-04-30 01:37 31.26300 116.51613 32263 ft 405 kts 238°
2026-04-30 01:37 31.22857 116.46375 32262 ft 407 kts 238°
2026-04-30 01:38 31.19409 116.41142 32253 ft 405 kts 238°
2026-04-30 01:38 31.15966 116.35920 32255 ft 407 kts 238°
2026-04-30 01:39 31.12525 116.30710 32270 ft 407 kts 238°
2026-04-30 01:39 31.09057 116.25463 32273 ft 408 kts 238°
2026-04-30 01:40 31.05613 116.20261 32277 ft 404 kts 238°
2026-04-30 01:40 31.02153 116.15037 32276 ft 408 kts 238°
2026-04-30 01:41 30.98681 116.09805 32280 ft 407 kts 238°
2026-04-30 01:41 30.95230 116.04609 32278 ft 407 kts 238°
2026-04-30 01:42 30.91756 115.99388 32271 ft 407 kts 238°
2026-04-30 01:42 30.88302 115.94201 32264 ft 407 kts 238°
2026-04-30 01:43 30.84841 115.89008 32267 ft 408 kts 239°
2026-04-30 01:43 30.81404 115.83803 32275 ft 408 kts 239°
2026-04-30 01:44 30.77948 115.78558 32262 ft 407 kts 239°
2026-04-30 01:44 30.74501 115.73332 32273 ft 409 kts 239°
2026-04-30 01:45 30.71039 115.68093 32273 ft 406 kts 239°
2026-04-30 01:45 30.67589 115.62876 32258 ft 411 kts 239°
2026-04-30 01:46 30.64148 115.57687 32265 ft 406 kts 239°
2026-04-30 01:46 30.60688 115.52469 32267 ft 410 kts 239°
2026-04-30 01:47 30.57217 115.47245 32263 ft 409 kts 239°
2026-04-30 01:47 30.53750 115.42036 32266 ft 407 kts 240°
2026-04-30 01:48 30.50289 115.36839 32270 ft 409 kts 240°
2026-04-30 01:48 30.46990 115.31496 32281 ft 402 kts 246°
2026-04-30 01:49 30.44936 115.25590 32283 ft 393 kts 260°
2026-04-30 01:49 30.44302 115.19330 32290 ft 391 kts 272°
2026-04-30 01:50 30.44851 115.13139 32288 ft 389 kts 278°
2026-04-30 01:50 30.45528 115.06930 32286 ft 389 kts 277°
2026-04-30 01:51 30.46186 115.00708 32298 ft 391 kts 277°
2026-04-30 01:51 30.46831 114.94495 32276 ft 389 kts 278°
2026-04-30 01:52 30.47471 114.88270 32291 ft 389 kts 278°
2026-04-30 01:52 30.48106 114.82055 32276 ft 388 kts 277°
2026-04-30 01:53 30.48735 114.75851 32281 ft 388 kts 278°
2026-04-30 01:53 30.49362 114.69627 32270 ft 388 kts 278°
2026-04-30 01:54 30.49982 114.63451 32271 ft 391 kts 278°
2026-04-30 01:54 30.50604 114.57224 32263 ft 390 kts 278°
2026-04-30 01:55 30.51224 114.50983 32273 ft 389 kts 278°
2026-04-30 01:55 30.51837 114.44772 32258 ft 391 kts 278°
2026-04-30 01:56 30.52452 114.38522 32268 ft 387 kts 278°
2026-04-30 01:56 30.53060 114.32312 32274 ft 389 kts 278°
2026-04-30 01:57 30.53667 114.26077 32279 ft 391 kts 278°
2026-04-30 01:57 30.54268 114.19880 32285 ft 389 kts 278°
2026-04-30 01:58 30.54856 114.13623 32279 ft 392 kts 278°
2026-04-30 01:58 30.55453 114.07414 32282 ft 389 kts 278°
2026-04-30 01:59 30.56353 113.98044 32267 ft 390 kts 278°
2026-04-30 02:00 30.56937 113.91756 32264 ft 391 kts 278°
2026-04-30 02:00 30.57515 113.85505 32267 ft 391 kts 279°
2026-04-30 02:01 30.57585 113.79224 32259 ft 392 kts 271°
2026-04-30 02:01 30.57349 113.72890 32259 ft 396 kts 271°
2026-04-30 02:02 30.57110 113.66540 32257 ft 392 kts 271°
2026-04-30 02:02 30.56870 113.60207 32255 ft 394 kts 272°
2026-04-30 02:03 30.56629 113.53902 32250 ft 393 kts 271°
2026-04-30 02:03 30.56385 113.47568 32257 ft 396 kts 271°
2026-04-30 02:04 30.56135 113.41192 32245 ft 394 kts 271°
2026-04-30 02:04 30.55886 113.34888 32251 ft 396 kts 271°
2026-04-30 02:05 30.55630 113.28538 32262 ft 393 kts 271°
2026-04-30 02:05 30.55372 113.22164 32261 ft 397 kts 271°
2026-04-30 02:06 30.55111 113.15829 32260 ft 394 kts 271°
2026-04-30 02:06 30.54849 113.09471 32253 ft 396 kts 271°
2026-04-30 02:07 30.54584 113.03119 32254 ft 396 kts 272°
2026-04-30 02:07 30.54316 112.96768 32260 ft 394 kts 271°
2026-04-30 02:08 30.54045 112.90398 32258 ft 397 kts 272°
2026-04-30 02:08 30.53771 112.84067 32256 ft 396 kts 271°
2026-04-30 02:09 30.53493 112.77702 32247 ft 392 kts 271°
2026-04-30 02:09 30.53215 112.71377 32253 ft 397 kts 272°
2026-04-30 02:10 30.52930 112.65005 32242 ft 394 kts 272°
2026-04-30 02:10 30.52645 112.58661 32248 ft 397 kts 272°
2026-04-30 02:11 30.52355 112.52310 32247 ft 395 kts 272°
2026-04-30 02:11 30.52062 112.45952 32247 ft 396 kts 272°
2026-04-30 02:12 30.51766 112.39606 32242 ft 393 kts 273°
2026-04-30 02:12 30.51469 112.33252 32254 ft 396 kts 272°
2026-04-30 02:13 30.51168 112.26945 32251 ft 395 kts 272°
2026-04-30 02:13 30.50861 112.20561 32260 ft 396 kts 272°
2026-04-30 02:14 30.50554 112.14221 32250 ft 396 kts 272°
2026-04-30 02:14 30.50243 112.07864 32255 ft 395 kts 273°
2026-04-30 02:15 30.49929 112.01511 32244 ft 397 kts 272°
2026-04-30 02:15 30.49611 111.95162 32256 ft 395 kts 272°
2026-04-30 02:16 30.49292 111.88834 32237 ft 395 kts 273°
2026-04-30 02:16 30.48968 111.82468 32245 ft 397 kts 272°
2026-04-30 02:17 30.48641 111.76116 32247 ft 398 kts 272°
2026-04-30 02:17 30.48310 111.69756 32244 ft 396 kts 273°
2026-04-30 02:18 30.47972 111.63403 32238 ft 396 kts 272°
2026-04-30 02:18 30.47630 111.57053 32241 ft 397 kts 272°
2026-04-30 02:19 30.47284 111.50679 32243 ft 396 kts 272°
2026-04-30 02:19 30.46602 111.44344 32236 ft 399 kts 268°
2026-04-30 02:20 30.45730 111.37984 32250 ft 401 kts 268°
2026-04-30 02:20 30.44852 111.31622 32255 ft 400 kts 268°
2026-04-30 02:21 30.43973 111.25288 32272 ft 397 kts 267°
2026-04-30 02:21 30.43094 111.18971 32264 ft 404 kts 268°
2026-04-30 02:22 30.42202 111.12604 32274 ft 398 kts 267°
2026-04-30 02:22 30.41315 111.06274 32270 ft 402 kts 267°
2026-04-30 02:23 30.40414 110.99884 32272 ft 401 kts 267°
2026-04-30 02:23 30.39515 110.93524 32277 ft 401 kts 267°
2026-04-30 02:24 30.38615 110.87181 32286 ft 401 kts 267°
2026-04-30 02:24 30.37711 110.80829 32298 ft 400 kts 268°
2026-04-30 02:25 30.36812 110.74541 32314 ft 400 kts 268°
2026-04-30 02:25 30.35901 110.68185 32301 ft 399 kts 267°
2026-04-30 02:26 30.34988 110.61838 32288 ft 402 kts 268°
2026-04-30 02:26 30.34067 110.55460 32295 ft 402 kts 268°
2026-04-30 02:27 30.33149 110.49125 32287 ft 400 kts 267°
2026-04-30 02:27 30.32226 110.42777 32287 ft 403 kts 268°
2026-04-30 02:28 30.31299 110.36428 32284 ft 401 kts 268°
2026-04-30 02:28 30.30364 110.30042 32302 ft 402 kts 267°
2026-04-30 02:29 30.29432 110.23708 32299 ft 399 kts 268°
2026-04-30 02:29 30.28496 110.17357 32315 ft 401 kts 267°
2026-04-30 02:30 30.27554 110.10993 32309 ft 401 kts 268°
2026-04-30 02:30 30.26610 110.04634 32293 ft 402 kts 268°
2026-04-30 02:31 30.25660 109.98255 32320 ft 404 kts 267°
2026-04-30 02:31 30.24710 109.91902 32308 ft 403 kts 267°
2026-04-30 02:32 30.23759 109.85568 32298 ft 403 kts 267°
2026-04-30 02:32 30.22792 109.79147 32303 ft 400 kts 267°
2026-04-30 02:33 30.21841 109.72852 32301 ft 405 kts 267°
2026-04-30 02:33 30.20866 109.66441 32293 ft 402 kts 267°
2026-04-30 02:34 30.19837 109.60081 32284 ft 407 kts 263°
2026-04-30 02:34 30.18210 109.53799 32279 ft 410 kts 261°
2026-04-30 02:35 30.16548 109.47540 32272 ft 411 kts 261°
2026-04-30 02:35 30.14867 109.41213 32223 ft 413 kts 261°
2026-04-30 02:35 30.14032 109.38082 31992 ft 407 kts 261°
2026-04-30 02:36 30.13200 109.34967 31777 ft 401 kts 260°
2026-04-30 02:36 30.12395 109.31950 31595 ft 399 kts 260°
2026-04-30 02:36 30.11574 109.28865 31404 ft 400 kts 260°
2026-04-30 02:36 30.10765 109.25834 31211 ft 399 kts 260°
2026-04-30 02:37 30.09949 109.22779 31020 ft 399 kts 259°
2026-04-30 02:37 30.09133 109.19733 30832 ft 397 kts 259°
2026-04-30 02:37 30.08319 109.16708 30634 ft 396 kts 259°
2026-04-30 02:37 30.07501 109.13670 30435 ft 395 kts 259°
2026-04-30 02:38 30.06682 109.10628 30240 ft 396 kts 259°
2026-04-30 02:38 30.05873 109.07632 30043 ft 395 kts 259°
2026-04-30 02:38 30.05054 109.04598 29831 ft 394 kts 259°
2026-04-30 02:38 30.04247 109.01611 29646 ft 394 kts 259°
2026-04-30 02:39 30.03429 108.98589 29445 ft 393 kts 259°
2026-04-30 02:39 30.02615 108.95574 29231 ft 392 kts 259°
2026-04-30 02:39 30.01832 108.92598 29036 ft 391 kts 259°
2026-04-30 02:39 30.01039 108.89571 28831 ft 390 kts 259°
2026-04-30 02:40 30.00260 108.86603 28643 ft 391 kts 259°
2026-04-30 02:40 29.99469 108.83599 28435 ft 389 kts 259°
2026-04-30 02:40 29.98690 108.80641 28229 ft 386 kts 259°
2026-04-30 02:40 29.97908 108.77677 28026 ft 387 kts 259°
2026-04-30 02:41 29.97130 108.74729 27824 ft 388 kts 258°
2026-04-30 02:41 29.96348 108.71771 27623 ft 387 kts 258°
2026-04-30 02:41 29.95562 108.68800 27423 ft 385 kts 259°
2026-04-30 02:41 29.94788 108.65878 27220 ft 384 kts 259°
2026-04-30 02:42 29.94007 108.62925 27018 ft 384 kts 258°
2026-04-30 02:42 29.93235 108.60014 26814 ft 382 kts 258°
2026-04-30 02:42 29.92463 108.57107 26609 ft 382 kts 258°
2026-04-30 02:42 29.91682 108.54163 26403 ft 381 kts 258°
2026-04-30 02:43 29.90914 108.51280 26203 ft 380 kts 258°
2026-04-30 02:43 29.90137 108.48360 25998 ft 379 kts 258°
2026-04-30 02:43 29.89369 108.45476 25786 ft 378 kts 258°
2026-04-30 02:43 29.88592 108.42561 25561 ft 379 kts 258°
2026-04-30 02:44 29.87830 108.39706 25349 ft 377 kts 258°
2026-04-30 02:44 29.87055 108.36807 25131 ft 376 kts 258°
2026-04-30 02:44 29.86289 108.33943 24921 ft 377 kts 258°
2026-04-30 02:44 29.85514 108.31046 24717 ft 377 kts 258°
2026-04-30 02:45 29.84749 108.28194 24516 ft 376 kts 257°
2026-04-30 02:45 29.83977 108.25317 24311 ft 374 kts 257°
2026-04-30 02:45 29.83208 108.22452 24110 ft 374 kts 257°
2026-04-30 02:45 29.82445 108.19611 23912 ft 374 kts 257°
2026-04-30 02:46 29.81670 108.16731 23713 ft 373 kts 257°
2026-04-30 02:46 29.80911 108.13912 23522 ft 372 kts 257°
2026-04-30 02:46 29.80146 108.11073 23323 ft 371 kts 257°
2026-04-30 02:46 29.79383 108.08245 23128 ft 371 kts 257°
2026-04-30 02:47 29.78619 108.05418 22923 ft 370 kts 257°
2026-04-30 02:47 29.77851 108.02574 22718 ft 371 kts 257°
2026-04-30 02:47 29.77129 107.99771 22526 ft 367 kts 260°
2026-04-30 02:47 29.76665 107.96887 22335 ft 365 kts 267°
2026-04-30 02:48 29.76511 107.93976 22151 ft 363 kts 273°
2026-04-30 02:48 29.76666 107.91071 21962 ft 360 kts 279°
2026-04-30 02:48 29.77119 107.88270 21866 ft 357 kts 286°
2026-04-30 02:48 29.77857 107.85561 21846 ft 350 kts 292°
2026-04-30 02:49 29.78724 107.83008 21846 ft 344 kts 292°
2026-04-30 02:49 29.79603 107.80438 21742 ft 346 kts 292°
2026-04-30 02:49 29.80468 107.77878 21406 ft 346 kts 292°
2026-04-30 02:49 29.81327 107.75313 21055 ft 343 kts 292°
2026-04-30 02:50 29.82180 107.72755 20699 ft 340 kts 292°
2026-04-30 02:50 29.83030 107.70201 20341 ft 339 kts 292°
2026-04-30 02:50 29.83866 107.67687 19984 ft 340 kts 292°
2026-04-30 02:50 29.84711 107.65145 19623 ft 340 kts 292°
2026-04-30 02:51 29.85547 107.62627 19262 ft 339 kts 292°
2026-04-30 02:51 29.86390 107.60085 18905 ft 339 kts 292°
2026-04-30 02:51 29.87219 107.57584 18553 ft 338 kts 293°
2026-04-30 02:51 29.88060 107.55045 18178 ft 338 kts 292°
2026-04-30 02:52 29.88895 107.52522 17814 ft 336 kts 293°
2026-04-30 02:52 29.89729 107.50002 17449 ft 336 kts 293°
2026-04-30 02:52 29.90551 107.47515 17087 ft 335 kts 293°
2026-04-30 02:52 29.91377 107.45011 16725 ft 334 kts 292°
2026-04-30 02:53 29.92203 107.42510 16359 ft 332 kts 292°
2026-04-30 02:53 29.93013 107.40054 16009 ft 331 kts 292°
2026-04-30 02:53 29.93833 107.37564 15649 ft 332 kts 292°
2026-04-30 02:53 29.94653 107.35077 15301 ft 331 kts 292°
2026-04-30 02:54 29.95467 107.32601 14938 ft 330 kts 291°
2026-04-30 02:54 29.96270 107.30160 14587 ft 329 kts 291°
2026-04-30 02:54 29.97007 107.27668 14228 ft 329 kts 285°
2026-04-30 02:54 29.97434 107.25080 13868 ft 330 kts 277°
2026-04-30 02:55 29.97521 107.22449 13504 ft 329 kts 268°
2026-04-30 02:55 29.97264 107.19828 13199 ft 326 kts 259°
2026-04-30 02:55 29.96681 107.17336 12969 ft 319 kts 251°
2026-04-30 02:55 29.95817 107.15040 12759 ft 312 kts 243°
2026-04-30 02:56 29.94690 107.12929 12550 ft 306 kts 235°
2026-04-30 02:56 29.93414 107.10991 12337 ft 300 kts 234°
2026-04-30 02:56 29.92155 107.09094 12133 ft 300 kts 233°
2026-04-30 02:56 29.90876 107.07187 11920 ft 298 kts 233°
2026-04-30 02:57 29.89608 107.05305 11708 ft 298 kts 233°
2026-04-30 02:57 29.88339 107.03425 11490 ft 296 kts 233°
2026-04-30 02:57 29.87067 107.01543 11281 ft 296 kts 233°
2026-04-30 02:57 29.85812 106.99686 11081 ft 294 kts 233°
2026-04-30 02:58 29.84555 106.97828 10859 ft 292 kts 233°
2026-04-30 02:58 29.83311 106.95990 10637 ft 291 kts 232°
2026-04-30 02:58 29.82084 106.94177 10421 ft 289 kts 232°
2026-04-30 02:58 29.80840 106.92342 10197 ft 288 kts 233°
2026-04-30 02:59 29.79620 106.90541 9985 ft 287 kts 232°
2026-04-30 02:59 29.78384 106.88718 9764 ft 287 kts 233°
2026-04-30 02:59 29.77156 106.86907 9542 ft 285 kts 232°
2026-04-30 02:59 29.75936 106.85109 9315 ft 285 kts 233°
2026-04-30 03:00 29.74719 106.83317 9096 ft 285 kts 232°
2026-04-30 03:00 29.73511 106.81537 8882 ft 284 kts 232°
2026-04-30 03:00 29.72224 106.79797 8655 ft 283 kts 224°
2026-04-30 03:00 29.70696 106.78414 8432 ft 281 kts 212°
2026-04-30 03:01 29.68923 106.77427 8206 ft 281 kts 199°
2026-04-30 03:01 29.67084 106.76762 7992 ft 279 kts 197°
2026-04-30 03:01 29.65221 106.76116 7774 ft 278 kts 197°
2026-04-30 03:01 29.63361 106.75474 7556 ft 277 kts 197°
2026-04-30 03:02 29.61504 106.74834 7336 ft 276 kts 197°
2026-04-30 03:02 29.59677 106.74202 7117 ft 274 kts 197°
2026-04-30 03:02 29.57862 106.73572 6899 ft 274 kts 196°
2026-04-30 03:02 29.56035 106.72938 6676 ft 273 kts 196°
2026-04-30 03:03 29.54212 106.72307 6452 ft 271 kts 196°
2026-04-30 03:03 29.50628 106.71066 6017 ft 269 kts 196°
2026-04-30 03:03 29.48826 106.70442 5899 ft 266 kts 196°
2026-04-30 03:04 29.47073 106.69836 5883 ft 260 kts 196°
2026-04-30 03:04 29.45374 106.69248 5879 ft 246 kts 196°
2026-04-30 03:04 29.43787 106.68700 5876 ft 234 kts 196°
2026-04-30 03:04 29.42231 106.68164 5881 ft 232 kts 196°
2026-04-30 03:05 29.40670 106.67627 5884 ft 232 kts 196°
2026-04-30 03:05 29.39130 106.67097 5884 ft 233 kts 196°
2026-04-30 03:05 29.37648 106.66376 5873 ft 227 kts 218°
2026-04-30 03:05 29.36698 106.65002 5782 ft 220 kts 247°
2026-04-30 03:06 29.36480 106.63319 5613 ft 216 kts 276°
2026-04-30 03:06 29.36779 106.61617 5509 ft 218 kts 283°
2026-04-30 03:06 29.37188 106.59941 5383 ft 217 kts 285°
2026-04-30 03:06 29.37619 106.58290 5261 ft 217 kts 286°
2026-04-30 03:07 29.38048 106.56660 5138 ft 216 kts 286°
2026-04-30 03:07 29.38610 106.55057 4998 ft 216 kts 307°
2026-04-30 03:07 29.39756 106.53962 4859 ft 217 kts 339°
2026-04-30 03:07 29.41215 106.53714 4716 ft 214 kts
2026-04-30 03:08 29.42675 106.54080 4599 ft 214 kts 17°
2026-04-30 03:08 29.44104 106.54564 4496 ft 210 kts 19°
2026-04-30 03:08 29.45460 106.55084 4372 ft 203 kts 20°
2026-04-30 03:08 29.46792 106.55575 4247 ft 195 kts 19°
2026-04-30 03:09 29.48069 106.56018 4127 ft 189 kts 18°
2026-04-30 03:09 29.49328 106.56441 4007 ft 187 kts 18°
2026-04-30 03:09 29.50592 106.56863 3893 ft 186 kts 18°
2026-04-30 03:09 29.51834 106.57281 3869 ft 187 kts 18°
2026-04-30 03:10 29.53085 106.57706 3864 ft 187 kts 18°
2026-04-30 03:10 29.54340 106.58132 3874 ft 184 kts 18°
2026-04-30 03:10 29.55522 106.58536 3862 ft 171 kts 18°
2026-04-30 03:10 29.56647 106.58921 3862 ft 162 kts 19°
2026-04-30 03:11 29.57695 106.59281 3863 ft 154 kts 19°
2026-04-30 03:11 29.58732 106.59637 3696 ft 152 kts 18°
2026-04-30 03:11 29.59740 106.59982 3512 ft 151 kts 18°
2026-04-30 03:11 29.60755 106.60330 3323 ft 150 kts 18°
2026-04-30 03:12 29.61749 106.60671 3133 ft 149 kts 19°
2026-04-30 03:12 29.62737 106.61011 2942 ft 148 kts 19°
2026-04-30 03:12 29.63734 106.61352 2742 ft 147 kts 19°
2026-04-30 03:12 29.64715 106.61689 2542 ft 147 kts 19°
2026-04-30 03:13 29.65698 106.62022 2301 ft 149 kts 19°
2026-04-30 03:13 29.66689 106.62374 2097 ft 147 kts 19°
2026-04-30 03:13 29.67675 106.62703 1902 ft 149 kts 18°
2026-04-30 03:13 29.68681 106.63047 1767 ft 150 kts 19°
2026-04-30 03:14 29.69679 106.63388 1555 ft 147 kts 19°
2026-04-30 03:14 29.70652 106.63712 1396 ft 145 kts 19°
2026-04-30 03:14 29.71536 106.64041 1378 ft 113 kts 13°
2026-04-30 03:14 29.72116 106.64228 1378 ft 60 kts 15°
2026-04-30 03:15 29.72378 106.64315 1378 ft 30 kts 17°
2026-04-30 03:15 29.72554 106.64381 1378 ft 13 kts 24°
2026-04-30 03:15 29.72639 106.64435 1378 ft 14 kts 36°
2026-04-30 03:15 29.72717 106.64507 1378 ft 14 kts 45°
2026-04-30 03:16 29.72792 106.64592 1378 ft 15 kts 45°
2026-04-30 03:16 29.72860 106.64667 1378 ft 12 kts 40°
2026-04-30 03:16 29.72937 106.64713 1378 ft 12 kts 18°
2026-04-30 03:16 29.73025 106.64745 1378 ft 13 kts 17°
2026-04-30 03:17 29.73118 106.64777 1378 ft 14 kts 17°
2026-04-30 03:17 29.73215 106.64810 1379 ft 14 kts 17°
2026-04-30 03:17 29.73315 106.64848 1379 ft 15 kts 24°
2026-04-30 03:17 29.73411 106.64900 1379 ft 15 kts 26°
2026-04-30 03:18 29.73511 106.64954 1379 ft 16 kts 25°
2026-04-30 03:18 29.73572 106.64990 1379 ft 9 kts 36°
2026-04-30 03:18 29.73591 106.65059 1379 ft 10 kts 106°
2026-04-30 03:18 29.73569 106.65141 1379 ft 11 kts 107°
2026-04-30 03:19 29.73546 106.65231 1379 ft 12 kts 107°
2026-04-30 03:19 29.73520 106.65324 1379 ft 12 kts 107°
2026-04-30 03:19 29.73509 106.65410 1379 ft 10 kts 65°
2026-04-30 03:19 29.73569 106.65461 1379 ft 11 kts 26°
2026-04-30 03:20 29.73646 106.65504 1379 ft 12 kts 26°
2026-04-30 03:20 29.73726 106.65547 1379 ft 13 kts 26°
2026-04-30 03:20 29.73812 106.65595 1379 ft 13 kts 28°
2026-04-30 03:20 29.73863 106.65649 1379 ft 6 kts 44°
2026-04-30 03:21 29.73909 106.65677 1379 ft 7 kts 20°
2026-04-30 03:21 29.73930 106.65719 1379 ft 4 kts 99°
2026-04-30 03:21 29.73916 106.65747 1379 ft 3 kts 114°
2026-04-30 03:21 29.73910 106.65773 1379 ft 0 kts 106°